Whidbey Island, WA

10:53 PM PDT on April 23, 2017 (GMT -0700)
Whidbey Island Naval Air Station

Weather History for KNUW - October, 2011

Change the Weather History Date:

Sunday, October 9, 2011

  Actual Average Record
Temperature  
Mean Temperature 51 °F -  
Max Temperature 55 °F 57 °F 69 °F (2005)
Min Temperature 45 °F 43 °F 37 °F (1999)
Degree Days  
Heating Degree Days 14    
Growing Degree Days 1 (Base 50)    
Moisture  
Dew Point 47 °F    
Average Humidity 83    
Maximum Humidity 90    
Minimum Humidity 72    
Precipitation  
Precipitation 0.00 in - - ()
Sea Level Pressure  
Sea Level Pressure 30.03 in    
Wind  
Wind Speed 6 mph (SSW)    
Max Wind Speed 9 mph    
Max Gust Speed 18 mph    
Visibility 10 miles    
Events      
Averages and records for this station are not official NWS values.
T = Trace of Precipitation, MM = Missing Value Source: NWS Daily Summary

Daily Weather History Graph

Daily Weather History Graph

Search for Another Location

Airport or City:

Trip Planner

Search our weather history database for the weather conditions in past years. The results will help you decide how hot, cold, wet, or windy it might be!

Date:

Astronomy

Oct. 09, 2011 Rise Set
Actual Time 7:21 AM PDT 6:33 PM PDT
Civil Twilight 6:50 AM PDT 7:04 PM PDT
Nautical Twilight 6:13 AM PDT 7:41 PM PDT
Astronomical Twilight 5:37 AM PDT 8:17 PM PDT
Moon 5:17 PM PDT (10/9) 5:04 AM PDT (10/9)
Length of Visible Light 12h 14m
Length of Day
11h 12m
Waxing Gibbous, 95% of the Moon is Illuminated
Oct 9
Waxing Gibbous
Oct 11
Full
Oct 19
Last Quarter
Oct 26
New
Nov 2
First Quarter

Hourly Weather History & Observations

Time (PDT) Temp. Windchill Dew Point Humidity Pressure Visibility Wind Dir Wind Speed Gust Speed Precip Events Conditions
12:17 AM 57.2 °F - 48.2 °F 72% 30.06 in 10.0 mi SE 9.2 mph - 0.00 in   Overcast
12:56 AM 55.9 °F - 48.9 °F 77% 30.09 in 10.0 mi SSW 6.9 mph 18.4 mph 0.00 in   Overcast
1:50 AM 51.8 °F - 46.4 °F 82% 30.09 in 10.0 mi SSW 6.9 mph - N/A   Overcast
1:56 AM 52.0 °F - 46.9 °F 83% 30.10 in 10.0 mi SSW 4.6 mph - N/A   Overcast
2:22 AM 51.8 °F - 48.2 °F 88% 30.09 in 10.0 mi SSW 5.8 mph - N/A   Overcast
2:35 AM 51.8 °F - 48.2 °F 88% 30.09 in 10.0 mi SSW 9.2 mph - N/A   Overcast
2:56 AM 52.0 °F - 48.0 °F 86% 30.11 in 10.0 mi SW 8.1 mph - N/A   Overcast
3:25 AM 51.8 °F - 48.2 °F 88% 30.09 in 10.0 mi SSW 5.8 mph - N/A   Overcast
3:49 AM 53.6 °F - 48.2 °F 82% 30.08 in 10.0 mi SW 5.8 mph - N/A   Overcast
3:56 AM 53.1 °F - 48.0 °F 83% 30.09 in 10.0 mi SW 4.6 mph - N/A   Overcast
4:56 AM 53.1 °F - 46.9 °F 80% 30.10 in 10.0 mi SW 9.2 mph - N/A   Overcast
5:56 AM 52.0 °F - 46.0 °F 80% 30.09 in 10.0 mi SW 8.1 mph - N/A   Overcast
6:56 AM 52.0 °F - 46.0 °F 80% 30.09 in 10.0 mi SW 6.9 mph - N/A   Overcast
7:56 AM 51.1 °F - 46.0 °F 83% 30.09 in 10.0 mi Calm Calm - N/A   Mostly Cloudy
8:56 AM 52.0 °F - 48.0 °F 86% 30.09 in 10.0 mi Calm Calm - N/A   Mostly Cloudy
9:56 AM 52.0 °F - 48.0 °F 86% 30.08 in 10.0 mi West 4.6 mph - N/A   Mostly Cloudy
10:56 AM 53.1 °F - 48.9 °F 86% 30.07 in 10.0 mi Calm Calm - N/A   Overcast
11:56 AM 54.0 °F - 48.0 °F 80% 30.06 in 10.0 mi SSW 3.5 mph - N/A   Overcast
12:56 PM 54.0 °F - 48.0 °F 80% 30.05 in 10.0 mi West 5.8 mph - N/A   Mostly Cloudy
1:56 PM 54.0 °F - 46.9 °F 77% 30.03 in 10.0 mi West 3.5 mph - N/A   Mostly Cloudy
2:56 PM 53.1 °F - 46.9 °F 80% 30.02 in 10.0 mi West 5.8 mph - N/A   Mostly Cloudy
3:56 PM 55.0 °F - 48.0 °F 77% 29.99 in 10.0 mi Calm Calm - N/A   Scattered Clouds
4:56 PM 54.0 °F - 46.9 °F 77% 29.95 in 10.0 mi Calm Calm - N/A   Scattered Clouds
5:56 PM 51.1 °F - 46.9 °F 86% 29.93 in 10.0 mi WSW 3.5 mph - N/A   Scattered Clouds
6:56 PM 48.0 °F - 44.1 °F 86% 29.93 in 10.0 mi Calm Calm - N/A   Mostly Cloudy
7:56 PM 46.0 °F - 42.1 °F 86% 29.92 in 7.0 mi Calm Calm - N/A   Mostly Cloudy
8:56 PM 45.0 °F 42.6 °F 42.1 °F 90% 29.90 in 10.0 mi SE 4.6 mph - N/A   Mostly Cloudy
9:56 PM 46.9 °F - 43.0 °F 86% 29.87 in 10.0 mi ESE 5.8 mph - N/A   Mostly Cloudy
10:56 PM 48.0 °F - 44.1 °F 86% 29.83 in 10.0 mi East 5.8 mph - N/A   Mostly Cloudy
11:56 PM 48.9 °F - 46.0 °F 90% 29.83 in 10.0 mi ESE 5.8 mph - N/A   Mostly Cloudy